Погода в Вадимовке

Россия / Приморский край     44°24′18″N   132°23′03″E
темп.,
°C
ветер,
м/с
пор.,
м/с
влажн.,
%
обл.,
%
осадки,
мм/ч
давл.,
гПа
погр.,
м
17 апреля, сб
сб1701:00+7ююз612815 0.4 1009434
04:00+5ююз510823 0.4 1009229
07:00+4ююз510855 0.0 1011224
10:00+8юз46530 0.0 1012725
13:00+11юз463819 0.0 10121846
16:00+11зсз353463 0.0 10102128
19:00+10ссв344292 0.0 1010170
22:00+7св3551100 0.0 101179
18 апреля, вс
вс1801:00+6св346025 0.0 101074
04:00+4с487819 0.0 1010138
07:00+3с4118860 0.0 1010239
10:00+5с6107746 0.0 1010616
13:00+8с7116115 0.0 10081045
16:00+10ссз6115452 0.0 10061350
19:00+7с5116566 0.0 1006332
22:00+6сз37705 0.0 1006115
19 апреля, пн
пн1901:00+6зсз237117 0.0 100533
04:00+5зюз117412 0.0 100510
07:00+5зюз22715 0.0 100416
10:00+10сз13500 0.0 1004415
13:00+13ссз25390 0.0 1002867
16:00+15сз37320 0.0 10011231
19:00+15в1136100 0.0 100021
22:00+8ссз1521589 0.0 1005630
20 апреля, вт
вт2001:00+5с512530 0.0 1011697
04:00+3ссз38550 0.0 1013252
07:00+3з39440 0.0 1013269
10:00+8зсз919240 0.0 10122099
13:00+10сз1119220 0.0 10132353
16:00+9с611290 0.0 10131325
19:00+9ссз29340 0.0 1014406
22:00+7зсз36360 0.0 101679
21 апреля, ср
ср2101:00+6зсз33420 0.0 101831
04:00+6зюз22400 0.0 101911
07:00+6ююз334226 0.0 102024
10:00+12юз33310 0.0 1020271
13:00+17з34230 0.0 1019867
16:00+18с45230 0.0 10171070
19:00+17ссв11300 0.0 101716
22:00+14ююв11320 0.0 101911